Waarnemingen

Advertentie
Mijn weer
Bierset/Liege, België (6478): temperatuur & dauwpunt: 13.06.2018 16:00:00 - 19.06.2018 16:00:00 (CEST)Bierset/Liege, België (6478): windsnelheid & windstoten: 13.06.2018 16:00:00 - 19.06.2018 16:00:00 (CEST)Bierset/Liege, België (6478): windrichting: 13.06.2018 16:00:00 - 19.06.2018 16:00:00 (CEST)Bierset/Liege, België (6478): luchtdruk: 13.06.2018 16:00:00 - 19.06.2018 16:00:00 (CEST)Bierset/Liege, België (6478): zicht: 13.06.2018 16:00:00 - 19.06.2018 16:00:00 (CEST)
Datum & Tijd tt [°C] td [°C] ff [km/u] ff [kn] fx [km/u] fx [kn] dd ppp [hPa] vv [km]
19.06.2018 16:00:00 19,4 15,3 15 8 22 12 W 1025,0 10
19.06.2018 15:00:00 19,0 15,4 15 8 22 12 W 1025,1 10
19.06.2018 14:00:00 18,5 14,8 15 8 - - WZW 1024,9 10
19.06.2018 13:00:00 18,1 15,0 15 8 29 16 W 1025,0 10
19.06.2018 12:00:00 17,9 15,3 18 10 29 16 ZW 1024,9 10
19.06.2018 11:00:00 17,1 14,8 21 11 - - WZW 1024,8 9
19.06.2018 10:00:00 16,8 14,8 18 10 29 16 WZW 1024,6 10
19.06.2018 09:00:00 16,5 14,5 21 11 25 14 ZW 1024,2 10
19.06.2018 08:00:00 16,0 14,3 18 10 - - ZW 1023,9 10
19.06.2018 07:00:00 15,1 13,7 18 10 25 14 ZW 1024,0 10
19.06.2018 06:00:00 14,4 13,2 16 9 29 16 ZW 1023,8 10
19.06.2018 05:00:00 13,6 12,6 18 10 - - ZW 1023,3 35
19.06.2018 04:00:00 14,4 12,4 22 12 25 14 ZW 1023,0 35
19.06.2018 03:00:00 14,4 12,7 14 8 25 14 ZW 1022,9 35
19.06.2018 02:00:00 14,7 12,3 14 8 - - ZW 1022,9 35
19.06.2018 01:00:00 15,2 12,7 11 6 22 12 WZW 1022,9 10
19.06.2018 00:00:00 14,7 12,6 8 4 14 8 WZW 1022,7 10
18.06.2018 23:00:00 15,8 13,2 9 5 - - W 1022,5 10
18.06.2018 22:00:00 17,2 13,5 15 8 25 14 WZW 1021,6 10
18.06.2018 21:00:00 18,6 14,0 15 8 29 16 W 1021,3 10
18.06.2018 20:00:00 20,1 14,2 21 11 - - W 1020,9 10
18.06.2018 19:00:00 20,3 14,7 16 9 32 18 W 1020,7 10
18.06.2018 18:00:00 20,7 14,4 22 12 32 18 WZW 1020,8 10
18.06.2018 17:00:00 20,4 15,0 18 10 - - WZW 1021,1 10
18.06.2018 16:00:00 20,0 15,1 18 10 32 18 WZW 1021,3 35
18.06.2018 15:00:00 19,4 13,9 24 13 40 21 ZW 1021,2 10
18.06.2018 14:00:00 20,2 14,1 26 14 - - WZW 1021,1 10
18.06.2018 13:00:00 20,0 13,1 29 16 40 21 ZW 1021,0 10
18.06.2018 12:00:00 19,0 13,5 18 10 29 16 ZW 1021,0 10
18.06.2018 11:00:00 18,4 12,7 22 12 - - ZW 1021,0 10
18.06.2018 10:00:00 18,0 12,7 21 11 32 18 ZW 1020,9 10
18.06.2018 09:00:00 17,3 11,7 16 9 29 16 ZZW 1020,7 10
18.06.2018 08:00:00 16,1 11,0 16 9 - - ZZW 1020,5 10
18.06.2018 07:00:00 15,6 10,9 13 7 25 14 ZZW 1020,5 10
18.06.2018 06:00:00 15,3 10,9 15 8 32 18 ZZW 1020,5 10
18.06.2018 05:00:00 15,3 10,5 13 7 - - ZZW 1020,3 10
18.06.2018 04:00:00 15,2 10,8 11 6 22 12 Z 1020,3 10
18.06.2018 03:00:00 14,9 10,7 11 6 22 12 Z 1020,4 10
18.06.2018 02:00:00 15,1 10,9 11 6 - - Z 1020,7 10
18.06.2018 01:00:00 15,2 10,6 11 6 18 10 ZZW 1020,8 10
18.06.2018 00:00:00 15,1 10,5 11 6 14 8 ZW 1020,8 30
17.06.2018 23:00:00 15,1 10,3 9 5 - - WZW 1020,7 10
17.06.2018 22:00:00 15,7 10,1 11 6 22 12 W 1020,3 10
17.06.2018 21:00:00 16,4 9,9 15 8 29 16 ZW 1019,8 10
17.06.2018 20:00:00 16,9 9,6 22 12 - - ZW 1019,7 10
17.06.2018 19:00:00 16,6 9,3 15 8 29 16 ZW 1019,6 10
17.06.2018 18:00:00 16,7 9,1 16 9 29 16 ZW 1019,7 10
17.06.2018 17:00:00 16,5 9,3 18 10 - - W 1019,8 10
17.06.2018 16:00:00 16,3 9,0 18 10 32 18 WZW 1019,7 10
17.06.2018 15:00:00 15,8 9,0 16 9 29 16 WZW 1019,5 10
17.06.2018 14:00:00 15,9 9,4 18 10 - - W 1019,1 10
17.06.2018 13:00:00 16,0 9,9 18 10 29 16 W 1018,9 10
17.06.2018 12:00:00 16,0 9,8 18 10 36 19 W 1018,8 10
17.06.2018 11:00:00 16,4 10,1 21 11 - - WZW 1018,5 10
17.06.2018 10:00:00 15,6 9,5 21 11 32 18 WZW 1018,4 10
17.06.2018 09:00:00 14,9 10,7 16 9 29 16 WZW 1018,0 10
17.06.2018 08:00:00 14,5 10,8 16 9 - - ZW 1017,6 10
17.06.2018 07:00:00 13,7 10,7 15 8 22 12 ZW 1017,7 10
17.06.2018 06:00:00 13,7 10,1 16 9 25 14 ZW 1017,7 10
17.06.2018 05:00:00 13,7 10,0 11 6 - - ZW 1017,4 10
17.06.2018 04:00:00 14,2 9,4 11 6 14 8 ZZW 1017,1 10
17.06.2018 03:00:00 14,0 9,7 11 6 18 10 ZW 1017,2 10
17.06.2018 02:00:00 13,4 10,2 11 6 - - ZW 1017,3 10
17.06.2018 01:00:00 13,1 10,0 5 3 11 6 WZW 1017,2 10
17.06.2018 00:00:00 13,9 10,1 7 4 11 6 W 1017,0 30
16.06.2018 23:00:00 14,3 11,0 8 4 - - W 1016,9 10
16.06.2018 22:00:00 15,9 11,3 11 6 18 10 WZW 1016,3 10
16.06.2018 21:00:00 17,4 11,4 13 7 25 14 WZW 1015,9 10
16.06.2018 20:00:00 18,5 12,0 16 9 - - W 1015,5 10
16.06.2018 19:00:00 19,8 12,5 18 10 32 18 W 1015,1 10
16.06.2018 18:00:00 20,7 12,4 21 11 29 16 W 1014,6 10
16.06.2018 17:00:00 19,9 13,7 16 9 - - WZW 1015,0 10
16.06.2018 16:00:00 19,3 14,0 13 7 25 14 ZW 1014,8 10
16.06.2018 15:00:00 20,9 12,7 13 7 22 12 WZW 1014,9 10
16.06.2018 14:00:00 19,9 11,8 5 3 - - - 1015,3 10
16.06.2018 13:00:00 18,5 13,3 13 7 22 12 WNW 1015,9 10
16.06.2018 12:00:00 20,3 13,1 9 5 29 16 WZW 1015,6 10
16.06.2018 11:00:00 19,2 13,0 5 3 - - - 1015,6 10
16.06.2018 10:00:00 17,0 13,4 8 4 11 6 W 1016,2 10
16.06.2018 09:00:00 16,0 12,3 8 4 18 10 W 1016,4 9
16.06.2018 08:00:00 15,2 12,1 5 3 - - Z 1016,3 10
16.06.2018 07:00:00 13,9 11,7 7 4 11 6 ZO 1016,1 9
16.06.2018 06:00:00 13,5 11,6 7 4 11 6 ZW 1016,2 9
16.06.2018 05:00:00 14,2 11,5 4 2 - - ZZW 1016,2 9
16.06.2018 04:00:00 13,8 11,9 7 4 11 6 WZW 1016,5 12
16.06.2018 03:00:00 14,0 11,8 7 4 7 4 WZW 1016,5 12
16.06.2018 02:00:00 14,3 10,8 4 2 - - ZW 1016,6 25
16.06.2018 01:00:00 15,9 10,3 7 4 18 10 W 1016,4 25
16.06.2018 00:00:00 16,7 10,5 11 6 14 8 ZW 1016,2 10
15.06.2018 23:00:00 16,8 11,1 8 4 - - ZW 1016,2 10
15.06.2018 22:00:00 18,6 11,2 5 3 7 4 WZW 1016,0 10
15.06.2018 21:00:00 20,5 11,9 5 3 14 8 W 1016,0 10
15.06.2018 20:00:00 20,9 11,6 11 6 - - W 1016,0 10
15.06.2018 19:00:00 20,9 10,9 9 5 18 10 W 1016,0 10
15.06.2018 18:00:00 21,3 9,7 8 4 22 12 WZW 1015,9 10
15.06.2018 17:00:00 22,0 10,2 11 6 - - W 1016,3 25
15.06.2018 16:00:00 21,2 10,6 4 2 18 10 - 1016,6 10
15.06.2018 15:00:00 21,4 10,6 8 4 18 10 - 1016,6 10
15.06.2018 14:00:00 20,1 9,8 9 5 - - ZZW 1016,9 10
15.06.2018 13:00:00 19,6 10,3 9 5 18 10 WZW 1017,2 10
15.06.2018 12:00:00 17,9 10,8 8 4 22 12 WZW 1017,2 10
15.06.2018 11:00:00 17,9 11,0 11 6 - - ZW 1017,3 10
15.06.2018 10:00:00 16,8 10,3 11 6 18 10 Z 1017,2 10
15.06.2018 09:00:00 15,6 11,7 9 5 32 18 WZW 1017,3 10
15.06.2018 08:00:00 14,8 12,0 11 6 - - ZW 1017,1 10
15.06.2018 07:00:00 14,0 12,5 8 4 25 14 ZW 1016,9 8
15.06.2018 06:00:00 13,6 12,8 9 5 14 8 ZW 1016,7 6
15.06.2018 05:00:00 13,1 12,0 8 4 - - W 1016,6 10
15.06.2018 04:00:00 14,4 13,6 9 5 14 8 ZW 1016,5 6
15.06.2018 03:00:00 14,9 13,8 11 6 14 8 ZW 1016,7 10
15.06.2018 02:00:00 15,0 13,9 9 5 - - Z 1016,8 8
15.06.2018 01:00:00 15,0 13,9 9 5 29 16 ZW 1017,1 9
15.06.2018 00:00:00 15,3 14,0 13 7 22 12 ZZW 1016,8 9
14.06.2018 23:00:00 14,9 13,9 13 7 - - ZZW 1016,8 8
14.06.2018 22:00:00 14,7 14,0 13 7 22 12 ZW 1016,6 8
14.06.2018 21:00:00 16,4 13,1 13 7 22 12 ZZW 1015,9 10
14.06.2018 20:00:00 16,5 12,7 16 9 - - ZZW 1015,5 5
14.06.2018 19:00:00 16,7 13,0 18 10 25 14 ZZW 1015,4 10
14.06.2018 18:00:00 16,2 13,3 15 8 25 14 Z 1015,0 10
14.06.2018 17:00:00 16,5 13,4 22 12 - - ZW 1015,3 15
14.06.2018 16:00:00 18,1 12,6 15 8 32 18 ZW 1014,9 10
14.06.2018 15:00:00 19,9 9,3 24 13 36 19 ZW 1014,6 10
14.06.2018 14:00:00 19,7 8,8 24 13 - - ZW 1015,0 10
14.06.2018 13:00:00 19,4 8,8 24 13 36 19 WZW 1015,6 10
14.06.2018 12:00:00 18,0 7,4 22 12 40 21 ZZW 1015,7 10
14.06.2018 11:00:00 17,8 8,5 24 13 - - ZZW 1015,8 10
14.06.2018 10:00:00 16,4 9,0 21 11 29 16 ZZW 1016,1 10
14.06.2018 09:00:00 14,9 9,6 16 9 22 12 ZZW 1016,3 10
14.06.2018 08:00:00 12,8 9,7 13 7 - - ZZO 1016,5 10
14.06.2018 07:00:00 11,3 9,1 13 7 25 14 ZZO 1016,8 10
14.06.2018 06:00:00 11,2 9,2 13 7 22 12 ZZO 1017,0 10
14.06.2018 05:00:00 11,6 8,9 13 7 - - ZZO 1017,1 10
14.06.2018 04:00:00 11,6 8,8 8 4 22 12 Z 1017,6 10
14.06.2018 03:00:00 11,7 8,5 13 7 14 8 Z 1017,7 9
14.06.2018 02:00:00 12,0 9,1 9 5 - - ZZO 1017,9 8
14.06.2018 01:00:00 13,2 8,8 8 4 11 6 ZZW 1017,8 10
14.06.2018 00:00:00 13,2 8,3 4 2 7 4 - 1018,3 10
13.06.2018 23:00:00 14,1 7,5 4 2 - - - 1018,1 10
13.06.2018 22:00:00 14,6 8,7 2 1 7 4 - 1017,8 10
13.06.2018 21:00:00 15,8 8,4 4 2 11 6 - 1017,8 10
13.06.2018 20:00:00 15,8 9,1 8 4 - - NW 1017,8 10
13.06.2018 19:00:00 15,8 8,2 9 5 18 10 NNW 1017,5 10
13.06.2018 18:00:00 16,8 7,6 9 5 22 12 NW 1017,3 10
13.06.2018 17:00:00 16,4 8,0 11 6 - - NNW 1017,5 10
13.06.2018 16:00:00 16,2 7,8 15 8 25 14 N 1017,5 10

tt = temperatuur
td = dauwpunt
ff = windsnelheid
fx = windstoten
dd = windrichting
ppp = luchtdruk
vv = zicht

Weerstations in de omgeving